Regional Weather Roundup
Issued by NWS Kansas City/Pleasant Hill, MO

Home | Current Version | Previous Version | Graphics & Text | Print | Product List | Glossary Off
Versions: 1 2 3 4 5 6 7 8 9 10 11 12 13 14 15 16 17 18 19 20 21 22 23 24 25 26 27 28

000
ASUS43 KEAX 271610
RWREAX

WEATHER ROUNDUP FOR EASTERN KANSAS AND NORTHWEST MISSOURI
NATIONAL WEATHER SERVICE KANSAS CITY/PLEASANT HILL MO
1100 AM CDT TUE SEP 27 2016

KSZ040-057-103>105-MOZ028-029-037-043-271700-
...KANSAS CITY METROPOLITAN AREA...

CITY           SKY/WX    TMP DP  RH WIND       PRES   REMARKS
K.C. INTL      SUNNY     67  50  54 VRB7      30.04S
K.C. DOWNTOWN    N/A    N/A N/A N/A MISG      30.03F
LEES SUMMIT    SUNNY     69  48  47 W9        30.04F
OLATHE - IXD   SUNNY     67  50  54 SW8       30.06F
OLATHE - OJC   SUNNY     67  49  52 W8        30.05F
LAWRENCE       SUNNY     67  53  61 W6        30.04F

$$

MOZ001>008-011>017-020>025-030>033-038>040-044>046-053-054-271700-
...NORTHERN AND CENTRAL MISSOURI...

CITY           SKY/WX    TMP DP  RH WIND       PRES   REMARKS
ST. JOSEPH     SUNNY     68  49  50 CALM      30.03F
MOSBY          SUNNY     68  48  49 W5        30.03F
WHITEMAN AFB   MOSUNNY   69  49  48 W9        30.03F
CLINTON        SUNNY     68  50  52 SW9       30.07F
SEDALIA        SUNNY     72  47  40 W12       30.05F
WARSAW         NOT AVBL
CHILLICOTHE      N/A     68  50  52 VRB3      30.02F
KIRKSVILLE     SUNNY     68  48  48 W9        30.00F

$$

MOZ041-047>049-056>058-063>065-088>090-097-271700-
...EASTERN AND SOUTHERN MISSOURI...

CITY           SKY/WX    TMP DP  RH WIND       PRES   REMARKS
ST. LOUIS INTL MOSUNNY   71  46  40 W14       30.01F
SPIRIT OF STL  SUNNY     69  49  48 W13       30.00F
COLUMBIA       SUNNY     70  48  45 W12       30.03F
JEFFERSON CITY SUNNY     70  47  43 W6G18     30.03F
ROLLA          SUNNY     69  48  47 SW12      30.05F
OSAGE BEACH    SUNNY     70  50  49 SW10      30.07F
SPRINGFIELD    SUNNY     70  44  39 W13       30.10F
BRANSON        SUNNY     68  46  45 W3        30.14S
JOPLIN         SUNNY     70  48  45 SW10      30.11F
WEST PLAINS    SUNNY     70  44  39 W8        30.11F

$$

IAZ060-094-KSZ022-034>040-054-083-096-NEZ052-066-093-271700-
...KANSAS...SOUTHEAST NEBRASKA AND IOWA...

CITY           SKY/WX    TMP DP  RH WIND       PRES   REMARKS
TOPEKA         SUNNY     68  50  52 W5        30.04F
MANHATTAN      SUNNY     69  52  54 W5        30.06S
EMPORIA        SUNNY     70  49  47 W7        30.07F
CHANUTE        SUNNY     71  50  47 SW9       30.09F
WICHITA        SUNNY     70  48  45 W7        30.09S
OMAHA          SUNNY     68  47  46 CALM      30.02F
LINCOLN        SUNNY     68  46  45 CALM      30.05F
FALLS CITY     SUNNY     66  51  58 CALM      30.03S
LAMONI         SUNNY     68  44  42 NW7       30.00F
DES MOINES     MOSUNNY   67  43  41 W10       29.96F

$$





USA.gov is the U.S. government's official web portal to all federal, state and local government web resources and services.